When you browse on this site, cookies collect data to enhance your experience and personalize the content and advertising you see.
Visit our Privacy Policy to learn more. By continuing to use the site, you agree to this use of cookies and data.
  • en Suisse
  • Liste des pays
  • À 7 jours
  • Température de l'eau
  • Carte satellitaire
  • Carte météo
  • Widgets météo
  • user-avatar
    Se connecter

    Météo par heure à Vysockoe

    Ce jour, 18 Juin, Mardi

    Heure Température Précipitation Vent Pression Humidité
    00:00 +17°C° 0 mm 2 m/s 741 mmHg 85%
    01:00 +17°C° 0 mm 2 m/s 741 mmHg 87%
    02:00 +16°C° 0 mm 2 m/s 740 mmHg 88%
    03:00 +16°C° 0 mm 2 m/s 740 mmHg 87%
    04:00 +17°C° 0.1 mm 2 m/s 740 mmHg 87%
    05:00 +17°C° 0.1 mm 2 m/s 740 mmHg 87%
    06:00 +18°C° 0.1 mm 2 m/s 740 mmHg 87%
    07:00 +19°C° 0.9 mm 2 m/s 740 mmHg 86%
    08:00 +20°C° 0.9 mm 3 m/s 740 mmHg 85%
    09:00 +21°C° 0.9 mm 3 m/s 740 mmHg 84%
    10:00 +22°C° 1.4 mm 3 m/s 740 mmHg 79%
    11:00 +24°C° 1.4 mm 3 m/s 740 mmHg 74%
    12:00 +25°C° 1.4 mm 3 m/s 740 mmHg 70%
    13:00 +25°C° 0.9 mm 3 m/s 740 mmHg 70%
    14:00 +26°C° 0.9 mm 3 m/s 739 mmHg 70%
    15:00 +26°C° 0.9 mm 3 m/s 739 mmHg 70%
    16:00 +25°C° 0.5 mm 3 m/s 739 mmHg 72%
    17:00 +25°C° 0.5 mm 3 m/s 739 mmHg 75%
    18:00 +25°C° 0.5 mm 3 m/s 739 mmHg 77%
    19:00 +23°C° 0.2 mm 2 m/s 739 mmHg 80%
    20:00 +21°C° 0.2 mm 2 m/s 739 mmHg 82%
    21:00 +20°C° 0.2 mm 1 m/s 739 mmHg 84%
    22:00 +18°C° 0 mm 2 m/s 740 mmHg 85%
    23:00 +18°C° 0 mm 2 m/s 740 mmHg 87%

    Demain, 19 Juin, Mercredi

    Heure Température Précipitation Vent Pression Humidité
    00:00 +17°C° 0 mm 3 m/s 740 mmHg 88%
    01:00 +17°C° 0 mm 3 m/s 740 mmHg 89%
    02:00 +16°C° 0 mm 3 m/s 740 mmHg 89%
    03:00 +14°C° 0 mm 3 m/s 741 mmHg 90%
    04:00 +16°C° 0 mm 3 m/s 741 mmHg 89%
    05:00 +16°C° 0 mm 3 m/s 741 mmHg 89%
    06:00 +16°C° 0 mm 3 m/s 741 mmHg 88%
    07:00 +18°C° 0 mm 3 m/s 742 mmHg 83%
    08:00 +19°C° 0 mm 3 m/s 742 mmHg 78%
    09:00 +21°C° 0 mm 3 m/s 742 mmHg 73%
    10:00 +22°C° 0 mm 3 m/s 742 mmHg 68%
    11:00 +24°C° 0 mm 3 m/s 742 mmHg 62%
    12:00 +25°C° 0 mm 3 m/s 742 mmHg 56%
    13:00 +25°C° 0 mm 3 m/s 742 mmHg 56%
    14:00 +25°C° 0 mm 3 m/s 742 mmHg 56%
    15:00 +26°C° 0 mm 3 m/s 742 mmHg 56%
    16:00 +25°C° 0 mm 3 m/s 742 mmHg 60%
    17:00 +25°C° 0 mm 2 m/s 742 mmHg 64%
    18:00 +25°C° 0 mm 2 m/s 742 mmHg 68%
    19:00 +23°C° 0 mm 1 m/s 742 mmHg 70%
    20:00 +21°C° 0 mm 1 m/s 742 mmHg 73%
    21:00 +17°C° 0 mm 0 m/s 742 mmHg 75%
    22:00 +19°C° 0 mm 1 m/s 742 mmHg 76%
    23:00 +19°C° 0 mm 1 m/s 742 mmHg 76%

    Après-demain, 20 Juin, Jeudi

    Heure Température Précipitation Vent Pression Humidité
    00:00 +17°C° 0 mm 2 m/s 743 mmHg 76%
    01:00 +18°C° 0 mm 1 m/s 743 mmHg 79%
    02:00 +16°C° 0 mm 1 m/s 743 mmHg 82%
    03:00 +16°C° 0 mm 1 m/s 743 mmHg 85%
    04:00 +18°C° 0 mm 1 m/s 743 mmHg 84%
    05:00 +19°C° 0 mm 1 m/s 743 mmHg 82%
    06:00 +19°C° 0 mm 1 m/s 744 mmHg 81%
    07:00 +21°C° 0 mm 1 m/s 744 mmHg 76%
    08:00 +22°C° 0 mm 1 m/s 744 mmHg 72%
    09:00 +24°C° 0 mm 1 m/s 744 mmHg 67%
    10:00 +25°C° 0 mm 1 m/s 744 mmHg 62%
    11:00 +26°C° 0 mm 1 m/s 744 mmHg 57%
    12:00 +27°C° 0 mm 1 m/s 744 mmHg 52%
    13:00 +27°C° 0 mm 1 m/s 744 mmHg 50%
    14:00 +27°C° 0 mm 1 m/s 744 mmHg 49%
    15:00 +28°C° 0 mm 1 m/s 743 mmHg 48%
    16:00 +27°C° 0 mm 1 m/s 743 mmHg 51%
    17:00 +27°C° 0 mm 1 m/s 743 mmHg 55%
    18:00 +27°C° 0 mm 1 m/s 743 mmHg 59%
    19:00 +25°C° 0 mm 1 m/s 743 mmHg 62%
    20:00 +23°C° 0 mm 1 m/s 743 mmHg 65%
    21:00 +20°C° 0 mm 2 m/s 743 mmHg 68%
    22:00 +20°C° 0 mm 2 m/s 743 mmHg 71%
    23:00 +19°C° 0 mm 2 m/s 743 mmHg 73%

    21 Juin, Vendredi

    Heure Température Précipitation Vent Pression Humidité
    00:00 +18°C° 0 mm 2 m/s 743 mmHg 76%
    01:00 +18°C° 0 mm 2 m/s 744 mmHg 78%
    02:00 +17°C° 0 mm 2 m/s 744 mmHg 79%
    03:00 +18°C° 0 mm 1 m/s 744 mmHg 81%
    04:00 +19°C° 0 mm 1 m/s 744 mmHg 81%
    05:00 +20°C° 0 mm 1 m/s 744 mmHg 81%
    06:00 +20°C° 0 mm 1 m/s 744 mmHg 81%
    07:00 +22°C° 0 mm 1 m/s 744 mmHg 76%
    08:00 +23°C° 0 mm 1 m/s 744 mmHg 71%
    09:00 +24°C° 0 mm 1 m/s 744 mmHg 66%
    10:00 +25°C° 0 mm 2 m/s 745 mmHg 63%
    11:00 +26°C° 0 mm 2 m/s 745 mmHg 59%
    12:00 +27°C° 0 mm 2 m/s 745 mmHg 55%
    13:00 +27°C° 0 mm 2 m/s 744 mmHg 56%
    14:00 +27°C° 0 mm 2 m/s 744 mmHg 57%
    15:00 +27°C° 0 mm 2 m/s 744 mmHg 58%
    16:00 +27°C° 0 mm 2 m/s 744 mmHg 61%
    17:00 +27°C° 0 mm 2 m/s 744 mmHg 65%
    18:00 +27°C° 0 mm 2 m/s 743 mmHg 68%
    19:00 +25°C° 0 mm 2 m/s 743 mmHg 71%
    20:00 +23°C° 0 mm 2 m/s 744 mmHg 75%
    21:00 +21°C° 0 mm 2 m/s 744 mmHg 78%
    22:00 +20°C° 0 mm 2 m/s 744 mmHg 78%
    23:00 +19°C° 0 mm 2 m/s 744 mmHg 79%

    22 Juin, Samedi

    Heure Température Précipitation Vent Pression Humidité
    00:00 +19°C° 0 mm 2 m/s 744 mmHg 80%
    01:00 +18°C° 0 mm 2 m/s 744 mmHg 81%
    02:00 +18°C° 0 mm 2 m/s 744 mmHg 82%
    03:00 +18°C° 0 mm 2 m/s 744 mmHg 83%
    04:00 +18°C° 0 mm 2 m/s 744 mmHg 83%
    05:00 +19°C° 0 mm 2 m/s 744 mmHg 83%
    06:00 +19°C° 0 mm 2 m/s 744 mmHg 83%
    07:00 +21°C° 0 mm 3 m/s 744 mmHg 79%
    08:00 +22°C° 0 mm 3 m/s 744 mmHg 75%
    09:00 +25°C° 0 mm 3 m/s 744 mmHg 71%
    10:00 +26°C° 0 mm 3 m/s 744 mmHg 67%
    11:00 +27°C° 0 mm 4 m/s 744 mmHg 63%
    12:00 +28°C° 0 mm 4 m/s 744 mmHg 59%
    13:00 +28°C° 0 mm 4 m/s 744 mmHg 59%
    14:00 +28°C° 0 mm 4 m/s 744 mmHg 59%
    15:00 +28°C° 0 mm 5 m/s 743 mmHg 59%
    16:00 +28°C° 0 mm 4 m/s 743 mmHg 63%
    17:00 +28°C° 0 mm 4 m/s 743 mmHg 67%
    18:00 +27°C° 0 mm 3 m/s 743 mmHg 72%
    19:00 +26°C° 0 mm 3 m/s 743 mmHg 75%
    20:00 +24°C° 0 mm 3 m/s 743 mmHg 79%
    21:00 +22°C° 0 mm 3 m/s 743 mmHg 83%
    22:00 +21°C° 0 mm 3 m/s 743 mmHg 83%
    23:00 +21°C° 0 mm 3 m/s 743 mmHg 84%

    23 Juin, Dimanche

    Heure Température Précipitation Vent Pression Humidité
    00:00 +20°C° 0 mm 3 m/s 743 mmHg 84%
    01:00 +20°C° 0 mm 3 m/s 743 mmHg 86%
    02:00 +19°C° 0 mm 3 m/s 743 mmHg 87%
    03:00 +19°C° 0 mm 3 m/s 743 mmHg 89%
    04:00 +20°C° 0 mm 3 m/s 743 mmHg 89%
    05:00 +20°C° 0 mm 3 m/s 743 mmHg 89%
    06:00 +21°C° 0 mm 2 m/s 743 mmHg 88%
    07:00 +22°C° 0 mm 3 m/s 744 mmHg 83%
    08:00 +25°C° 0 mm 3 m/s 744 mmHg 79%
    09:00 +27°C° 0 mm 3 m/s 744 mmHg 74%
    10:00 +27°C° 0.1 mm 3 m/s 744 mmHg 69%
    11:00 +28°C° 0.1 mm 3 m/s 744 mmHg 65%
    12:00 +29°C° 0.1 mm 3 m/s 744 mmHg 60%
    13:00 +29°C° 0.1 mm 3 m/s 744 mmHg 60%
    14:00 +30°C° 0.1 mm 4 m/s 744 mmHg 59%
    15:00 +30°C° 0.1 mm 4 m/s 743 mmHg 58%
    16:00 +29°C° 0.1 mm 3 m/s 743 mmHg 62%
    17:00 +29°C° 0.1 mm 3 m/s 743 mmHg 66%
    18:00 +29°C° 0.1 mm 2 m/s 743 mmHg 70%
    19:00 +27°C° 0 mm 2 m/s 743 mmHg 73%
    20:00 +25°C° 0 mm 2 m/s 743 mmHg 76%
    21:00 +24°C° 0 mm 2 m/s 743 mmHg 78%
    22:00 +23°C° 0 mm 2 m/s 743 mmHg 79%
    23:00 +21°C° 0 mm 2 m/s 743 mmHg 81%
    Voir plus